TimeMDT,TemperatureF,Dew PointF,Humidity,Sea Level PressureIn,VisibilityMPH,Wind Direction,Wind SpeedMPH,Gust SpeedMPH,PrecipitationIn,Events,Conditions,WindDirDegrees,DateUTC
12:53 AM,37.9,28.9,70,30.04,10.0,NW,6.9,-,N/A,,Clear,310,2012-10-12 06:53:00
1:53 AM,37.0,28.0,70,30.01,10.0,NW,9.2,-,N/A,,Clear,310,2012-10-12 07:53:00
2:53 AM,39.0,28.9,67,29.99,10.0,Calm,Calm,-,N/A,,Clear,0,2012-10-12 08:53:00
3:53 AM,35.1,28.9,78,29.99,10.0,NW,4.6,-,N/A,,Clear,310,2012-10-12 09:53:00
4:53 AM,34.0,28.9,82,30.00,10.0,NW,6.9,-,N/A,,Clear,320,2012-10-12 10:53:00
5:53 AM,33.1,28.0,82,30.01,10.0,West,5.8,-,N/A,,Clear,280,2012-10-12 11:53:00
6:53 AM,33.1,28.9,85,30.01,10.0,NW,5.8,-,N/A,,Clear,310,2012-10-12 12:53:00
7:53 AM,33.8,28.4,81,30.03,10.0,NW,5.8,-,N/A,,Partly Cloudy,310,2012-10-12 13:53:00
8:53 AM,41.0,30.9,67,30.01,10.0,NW,4.6,-,N/A,,Clear,320,2012-10-12 14:53:00
9:53 AM,45.0,30.9,58,29.98,10.0,Calm,Calm,-,N/A,,Clear,0,2012-10-12 15:53:00
10:53 AM,50.0,32.0,50,30.01,10.0,Variable,3.5,-,N/A,,Clear,0,2012-10-12 16:53:00
11:53 AM,53.1,33.1,47,29.93,10.0,ESE,3.5,-,N/A,,Clear,120,2012-10-12 17:53:00
12:53 PM,55.9,32.0,40,29.89,10.0,Calm,Calm,-,N/A,,Clear,0,2012-10-12 18:53:00
1:53 PM,57.9,33.1,39,29.85,10.0,Variable,3.5,-,N/A,,Clear,0,2012-10-12 19:53:00
2:53 PM,59.0,32.0,36,29.82,10.0,East,3.5,-,N/A,,Clear,80,2012-10-12 20:53:00
3:53 PM,62.6,33.8,34,29.86,10.0,ESE,4.6,-,N/A,,Clear,110,2012-10-12 21:53:00
4:53 PM,64.9,35.1,33,29.76,10.0,South,10.4,-,N/A,,Clear,180,2012-10-12 22:53:00
5:53 PM,64.0,37.0,37,29.76,10.0,South,16.1,-,N/A,,Clear,180,2012-10-12 23:53:00
6:53 PM,62.1,37.0,39,29.77,10.0,South,16.1,-,N/A,,Clear,180,2012-10-13 00:53:00
7:53 PM,59.0,39.0,48,29.78,10.0,South,19.6,25.3,N/A,,Clear,180,2012-10-13 01:53:00
8:53 PM,55.0,39.9,57,29.76,10.0,SSE,6.9,-,N/A,,Clear,160,2012-10-13 02:53:00
9:53 PM,48.0,36.0,63,29.77,10.0,NW,5.8,-,N/A,,Partly Cloudy,320,2012-10-13 03:53:00
10:53 PM,51.1,33.1,50,29.76,10.0,West,9.2,-,N/A,,Mostly Cloudy,280,2012-10-13 04:53:00
11:53 PM,50.0,33.1,52,29.76,10.0,West,6.9,-,0.00,,Mostly Cloudy,270,2012-10-13 05:53:00